www.pogodaiklimat.ru
ПОГОДА в Миеркенисе
Время
(UTC), дата
13 20.10
14 20.10
15 20.10
16 20.10
17 20.10
18 20.10
19 20.10
20 20.10
21 20.10
22 20.10
23 20.10
00 21.10
01 21.10
02 21.10
03 21.10
04 21.10
05 21.10
06 21.10
07 21.10
08 21.10
09 21.10
10 21.10
11 21.10
12 21.10
13 21.10
14 21.10
15 21.10
16 21.10
17 21.10
18 21.10
19 21.10
20 21.10
21 21.10
22 21.10
23 21.10
00 22.10
01 22.10
02 22.10
03 22.10
04 22.10
05 22.10
06 22.10
07 22.10
08 22.10
09 22.10
10 22.10
11 22.10
12 22.10
13 22.10
14 22.10
15 22.10
16 22.10
17 22.10
18 22.10
19 22.10
20 22.10
21 22.10
22 22.10
23 22.10
00 23.10
01 23.10
02 23.10
03 23.10
04 23.10
05 23.10
06 23.10
07 23.10
08 23.10
09 23.10
10 23.10
11 23.10
12 23.10
13 23.10
14 23.10
15 23.10
16 23.10
17 23.10
18 23.10
19 23.10
20 23.10
21 23.10
22 23.10
23 23.10
00 24.10
01 24.10
02 24.10
03 24.10
04 24.10
05 24.10
06 24.10
07 24.10
08 24.10
09 24.10
10 24.10
11 24.10
12 24.10
13 24.10
14 24.10
15 24.10
16 24.10
17 24.10
18 24.10
19 24.10
20 24.10
21 24.10
22 24.10
23 24.10
00 25.10
01 25.10
02 25.10
03 25.10
04 25.10
05 25.10
06 25.10
07 25.10
08 25.10
09 25.10
10 25.10
11 25.10
12 25.10
13 25.10
14 25.10
15 25.10
16 25.10
17 25.10
18 25.10
19 25.10
20 25.10
21 25.10
22 25.10
23 25.10
00 26.10
01 26.10
02 26.10
03 26.10
04 26.10
05 26.10
06 26.10
07 26.10
08 26.10
09 26.10
10 26.10
11 26.10
12 26.10
13 26.10
14 26.10
15 26.10
16 26.10
17 26.10
18 26.10
19 26.10
20 26.10
21 26.10
22 26.10
23 26.10
00 27.10
01 27.10
02 27.10
03 27.10
04 27.10
05 27.10
06 27.10
07 27.10
08 27.10
09 27.10
10 27.10
11 27.10
Ветер
(напр.,м/с)
Видим. Явления Облачность Т
(С)
Тd
(С)
f
(%)
Тe
(С)
Тes
(С)
Комфортность P
(гПа)
Po
(гПа)
Тmin
(С)
Tmax
(С)
R
(мм)
R24
(мм)
S
(см)
ЮВ 3
{6}
11 км в посл. час снег {метель} н/о -2.9 -4.8 87 -8 -8 1017.3 942.1 0.1
ЮВ 3
{6}
8000 м {снег, метель} н/о -2.9 -5.4 83 -8 -8 1017.0 941.7
ЮВ 2
{6}
8000 м слаб. ливневой снег н/о -3.4 -5.3 87 -8 -8 1016.6 941.3
ЮВ 3
{5}
50 км в посл. час снег {ливн. снег} н/о -3.7 -5.2 89 -9 -9 1016.4 941.1 0.1
ЮВ 4
{6}
50 км {ливн. снег, снег} н/о -3.8 -6.4 82 -10 -10 1016.1 940.8
ЮВ 3
{6}
50 км {ливн. снег, снег} н/о -4.0 -5.9 87 -9 -9 1015.8 940.5 -5.1 -2.7
ЮВ 4
{6}
50 км н/о -4.1 -5.7 89 -10 -10 1015.7 940.3
ЮВ 5
{8}
50 км н/о -4.0 -6.3 84 -11 -11 1015.4 940.1
ЮВ 4
{7}
50 км н/о -4.1 -7.1 80 -10 -10 1015.0 939.7
ЮВ 5
{8}
50 км н/о -4.2 -7.1 80 -11 -11 1014.6 939.4
ЮВ 6
{10}
50 км н/о -4.6 -7.6 80 -12 -12 1014.4 939.1
ЮВ 5
{9}
50 км н/о -5.4 -7.3 86 -13 -13 1014.2 938.8
ЮВ 6
{9}
50 км н/о -5.6 -7.8 84 -13 -13 1013.8 938.4
ЮВ 5
{8}
50 км н/о -5.7 -7.5 87 -13 -13 1013.4 938.1
ЮВ 5
{8}
45 км н/о -5.9 -7.5 88 -13 -13 1012.9 937.5
ЮВ 4
{9}
11 км н/о -6.0 -7.2 91 -13 -13 1012.4 937.1
ЮВ 4
{8}
7000 м слаб. снег н/о -5.9 -7.3 90 -13 -13 1011.9 936.6 0.0
ЮВ 5
{7}
9000 м слаб. снег н/о -5.6 -7.1 89 -13 -13 1011.3 936.1 -6.0 -3.9
ЮВ 5
{9}
9000 м слаб. снег н/о -5.5 -7.0 89 -13 -13 1011.1 935.9 0.0
ЮВ 6
{10}
2800 м слаб. снег н/о -5.6 -7.1 89 -14 -14 1010.7 935.6 0.1
ЮВ 5
{8}
2600 м слаб. снег н/о -5.3 -6.8 89 -13 -13 1010.3 935.2 0.3
ЮВ 5
{9}
3500 м слаб. снег н/о -4.8 -6.4 89 -12 -12 1009.5 934.6 0.1
ЮВ 5
{9}
2300 м слаб. снег н/о -4.4 -5.9 89 -12 -12 1009.0 934.1 0.2
ЮВ 6
{10}
1500 м слаб. снег н/о -4.4 -5.5 92 -12 -12 1008.3 933.5 0.5
ЮВ 6
{10}
1500 м слаб. снег н/о -4.4 -5.6 91 -12 -12 1007.8 933.0 0.4
ЮВ 6
{10}
1300 м слаб. снег н/о -4.5 -5.6 92 -12 -12 1007.6 932.9 0.4
ЮВ 6
{9}
1700 м слаб. снег н/о -4.5 -5.6 92 -12 -12 1007.2 932.4 0.2
ЮВ 6
{10}
1500 м слаб. снег н/о -4.7 -5.7 93 -13 -13 1006.6 931.9 0.3
ЮВ 6
{11}
1900 м слаб. снег н/о -4.8 -6.0 91 -13 -13 1006.2 931.5 0.2
ЮВ 4
{8}
2700 м слаб. снег н/о -4.8 -6.1 91 -11 -11 1006.1 931.4 -4.3 0.2
ЮВ 4
{8}
2500 м слаб. снег н/о -4.9 -6.2 91 -11 -11 1005.9 931.2 0.3
ЮВ 4
{7}
2500 м слаб. снег н/о -5.0 -6.4 90 -11 -11 1005.5 930.8 0.3
ЮВ 4
{7}
4400 м слаб. снег н/о -5.0 -6.6 89 -11 -11 1004.8 930.2 0.3
ЮВ 4
{7}
13 км слаб. снег н/о -5.1 -7.1 86 -12 -12 1004.4 929.8 0.0
ЮВ 4
{7}
50 км в посл. час снег {метель} н/о -5.3 -7.6 84 -12 -12 1004.3 929.6 0.0
ЮВ 4
{6}
16 км слаб. ливневой снег н/о -5.5 -7.6 85 -12 -12 1004.1 929.4 0.0
ЮВ 3
{5}
29 км слаб. снег н/о -5.6 -7.7 85 -11 -11 1003.5 928.9
ЮВ 3
{5}
13 км слаб. снег н/о -5.7 -7.4 88 -11 -11 1003.0 928.4 0.0
ЮВ 3
{4}
22 км в посл. час снег {ливн. снег} н/о -5.8 -7.2 90 -11 -11 1002.5 927.9 0.0
ЮВ 2
{4}
7000 м слаб. снег н/о -5.9 -7.2 91 -10 -10 1002.1 927.6
ЮВ 2
{4}
5000 м слаб. снег н/о -6.0 -6.8 94 -10 -10 1001.7 927.2 0.1
Ю 1
{3}
7000 м слаб. снег н/о -6.0 -6.8 94 -8 -8 1001.5 926.9 -6.0 -4.8 0.1
Ю 1
{2}
4500 м слаб. снег н/о -5.8 -6.5 95 -8 -8 1001.2 926.8
ЮВ 2
{3}
9000 м слаб. снег н/о -5.7 -6.6 93 -10 -10 1001.3 926.8 0.0
ЮВ 2
{3}
2900 м слаб. снег н/о -5.3 -6.1 94 -10 -10 1000.9 926.6 0.3
ЮВ 2
{4}
4400 м слаб. снег н/о -5.0 -6.1 92 -9 -9 1000.6 926.3 0.2
ЮВ 2
{4}
35 км в посл. час снег н/о -4.8 -6.2 90 -9 -9 1000.4 926.1 0.1
Ю 1
{3}
13 км слаб. снег {метель} н/о -4.6 -6.4 87 -7 -7 1000.1 925.9 0.0
Ю 1
{2}
5000 м слаб. снег н/о -4.5 -6.2 88 -7 -7 999.8 925.7 0.3
штиль 0
{1}
30 км слаб. снег н/о -4.8 -6.5 88 -6 -6 999.6 925.4 0.0
штиль 0
{1}
45 км в посл. час снег {метель} н/о -4.8 -6.4 89 -6 -6 999.4 925.2 0.0
СЗ 1
{2}
50 км {снег, метель} н/о -8.1 -9.5 90 -11 -11 999.8 925.0
С 2
{3}
50 км {снег, метель} н/о -9.1 -10.3 91 -14 -14 999.7 924.8
СЗ 2
{3}
50 км {снег, метель} н/о -9.9 -11.3 89 -14 -14 999.8 924.8 -10.2 -4.4
З 1
{3}
50 км н/о -8.7 -10.0 90 -11 -11 999.4 924.6
З 2
{6}
50 км н/о -6.8 -8.3 89 -11 -11 998.7 924.2
СЗ 2
{5}
50 км н/о -6.7 -8.5 87 -11 -11 998.6 924.2
З 2
{5}
50 км н/о -6.6 -8.5 86 -11 -11 998.4 924.0
СЗ 3
{4}
50 км н/о -5.5 -7.1 88 -11 -11 997.9 923.7
ЮВ 1
{4}
2700 м слаб. ливневой снег н/о -7.4 -8.7 90 -10 -10 998.0 923.4 0.0
СЗ 4
{5}
14 км слаб. снег н/о -3.3 -5.3 86 -9 -9 997.1 923.3 0.0
С 4
{6}
11 км слаб. ливневой снег н/о -3.1 -5.2 85 -9 -9 996.7 923.0 0.0
З 3
{6}
50 км в посл. час снег {ливн. снег} н/о -3.8 -5.4 89 -9 -9 996.5 922.7 0.0
З 3
{4}
11 км слаб. ливневой снег н/о -3.4 -5.2 87 -9 -9 996.1 922.3 0.0
С 3
{5}
28 км в посл. час снег {ливн. снег} н/о -2.3 -4.9 82 -7 -7 995.4 921.9 0.0
ЮЗ 2
{5}
50 км в посл. час снег {ливн. снег} н/о -2.6 -5.1 83 -7 -7 995.2 921.6 -1.9 0.0
СЗ 2
{8}
35 км в посл. час снег {ливн. снег} н/о -2.3 -5.0 82 -6 -6 994.7 921.2
СЗ 4
{7}
4500 м слаб. снег н/о -1.4 -4.5 79 -7 -7 994.4 921.1 0.0
СЗ 4
{7}
1000 м снег {ливн. снег} н/о -1.4 -2.2 94 -7 -7 994.6 921.2 0.0
СЗ 6
{13}
3100 м слаб. снег н/о -0.8 -1.8 93 -8 -8 994.8 921.5 0.1
СЗ 6
{11}
3500 м слаб. ливневой снег н/о -0.8 -3.0 85 -8 -8 995.4 922.1 0.1
СЗ 5
{9}
5000 м слаб. ливневой снег н/о -0.8 -3.1 84 -7 -7 995.8 922.4 0.0
СЗ 5
{9}
15 км в посл. час снег {ливн. снег} н/о -1.1 -3.3 85 -7 -7 995.6 922.2
СЗ 7
{12}
50 км в посл. час снег {ливн. снег} н/о -1.1 -4.1 80 -8 -8 995.7 922.3 0.1
СЗ 4
{11}
50 км {ливн. снег, снег} н/о -1.7 -4.3 82 -7 -7 996.6 923.0
ЮВ 1
{7}
45 км {ливн. снег, снег} н/о -1.7 -4.1 84 -4 -4 996.6 923.1
СЗ 4
{9}
50 км слаб. ливневой снег н/о -1.3 -4.1 81 -7 -7 997.0 923.4 0.2
СЗ 5
{10}
30 км в посл. час снег {ливн. снег} н/о -1.7 -4.2 83 -8 -8 997.6 923.9 -3.6 -0.5 0.0
С 3
{8}
50 км н/о -3.0 -5.2 85 -8 -8 998.5 924.6
СЗ 3
{6}
30 км н/о -2.3 -4.3 86 -7 -7 998.6 924.9
С 3
{5}
50 км н/о -1.9 -4.0 86 -7 -7 999.2 925.5
С 4
{8}
40 км н/о -1.5 -3.3 88 -7 -7 999.3 925.6
С 6
{10}
27 км н/о -1.2 -3.3 86 -8 -8 999.4 925.7
СЗ 7
{13}
40 км н/о -1.4 -3.6 85 -9 -9 999.3 925.6
С 2
{13}
50 км н/о -1.4 -4.3 81 -5 -5 1000.1 926.3
З 2
{6}
50 км н/о -1.9 -4.4 83 -6 -6 1000.2 926.3
СЗ 3
{6}
50 км н/о -2.4 -5.0 82 -7 -7 1000.9 926.9
СЗ 2
{5}
50 км н/о -5.9 -7.2 91 -10 -10 1001.5 927.0
СЗ 4
{7}
50 км н/о -3.2 -6.2 80 -9 -9 1001.0 926.9
В 1
{5}
50 км н/о -3.3 -5.7 83 -6 -6 1001.4 927.3 -7.0 -0.8
СЗ 4
{5}
50 км н/о -2.5 -5.1 82 -8 -8 1001.5 927.5

{7}
50 км н/о -0.9 -4.7 75 1001.8 928.0
СЗ 3
{5}
45 км н/о -0.3 -4.6 73 -5 -5 1002.0 928.2
СЗ 3
{7}
50 км н/о +0.4 -5.4 65 -4 -4 1002.0 928.4
СЗ 2
{6}
40 км н/о 0.0 -5.6 66 -3 -3 1002.4 928.7
СЗ 3
{6}
50 км н/о -0.6 -5.7 68 -5 -5 1002.7 928.9
СЗ 3
{5}
50 км н/о -1.9 -5.4 77 -7 -7 1003.0 929.0
СЗ 3
{6}
50 км н/о -2.9 -6.0 79 -8 -8 1003.4 929.2
СЗ 2
{5}
50 км н/о -5.6 -7.4 87 -10 -10 1003.6 929.0
С 1
{4}
40 км н/о -8.5 -9.6 92 -11 -11 1004.3 929.1
СЗ 1
{4}
50 км н/о -8.9 -10.1 91 -11 -11 1004.4 929.1
С 1
{2}
45 км н/о -10.3 -11.3 92 -13 -13 1005.1 929.6 -10.4 +0.5
СЗ 2
{3}
45 км н/о -10.8 -11.9 92 -15 -15 1005.4 929.8
СЗ 2
{3}
50 км н/о -12.3 -13.7 89 -17 -17 1005.5 929.7
СЗ 3
{4}
50 км н/о -13.6 -15.1 88 -20 -20 1005.9 929.9
С 2
{3}
50 км н/о -15.0 -16.8 86 -20 -20 1006.5 930.3
С 3
{4}
50 км н/о -15.8 -17.5 87 -23 -23 1007.0 930.6
СЗ 2
{4}
50 км н/о -15.8 -17.8 85 -21 -21 1006.9 930.6
СЗ 2
{3}
50 км н/о -15.9 -17.8 85 -21 -21 1006.8 930.5
штиль 0
{4}
50 км н/о -17.1 -19.1 84 -17 -17 1007.1 930.5
З 1
{2}
50 км н/о -16.5 -18.5 84 -19 -19 1006.7 930.3
ЮВ 2
{3}
40 км н/о -12.8 -14.2 89 -17 -17 1006.4 930.5
ЮВ 1
{3}
50 км н/о -13.0 -14.5 88 -15 -15 1005.9 930.0
ЮВ 2
{3}
45 км н/о -13.0 -14.4 89 -18 -18 1006.2 930.3 -17.3 -9.6
ЮВ 3
{5}
30 км н/о -10.0 -11.1 92 -16 -16 1005.6 930.1
Ю 3
{5}
50 км н/о -8.6 -9.6 92 -15 -15 1005.0 929.8
ЮВ 4
{6}
45 км н/о -6.2 -7.1 93 -13 -13 1004.3 929.5
ЮВ 5
{8}
40 км н/о -4.9 -6.2 91 -12 -12 1003.6 929.0
ЮВ 6
{10}
1800 м слаб. снег н/о -4.4 -5.8 90 -12 -12 1003.1 928.7 0.6
ЮВ 7
{10}
900 м слаб. снег н/о -4.2 -5.0 94 -13 -13 1002.1 927.8 2
ЮВ 7
{11}
1400 м снег н/о -3.9 -4.7 94 -12 -12 1000.7 926.5 2
ЮВ 8
{12}
600 м снег н/о -3.6 -4.2 96 -12 -12 999.5 925.5 1
ЮВ 8
{14}
400 м сильн. снег н/о -3.2 -3.7 96 -12 -12 999.1 925.2 2
ЮВ 6
{12}
900 м слаб. снег н/о -3.0 -3.7 95 -11 -11 998.2 924.3 1
ЮВ 7
{12}
600 м снег н/о -2.8 -3.4 96 -11 -11 997.5 923.8 2
ЮВ 7
{12}
1000 м снег н/о -2.5 -3.0 96 -10 -10 996.5 922.8 -2.5 0.6
ЮВ 7
{11}
1100 м слаб. снег н/о -2.0 -2.6 96 -10 -10 995.2 921.7 0.0
ЮВ 7
{12}
700 м снег н/о -2.0 -2.5 96 -10 -10 994.4 921.0 0.0
ЮВ 6
{9}
500 м снег н/о -1.7 -2.1 97 -9 -9 994.2 920.8 2
В 4
{8}
1700 м слаб. снег н/о -1.2 -1.6 97 -7 -7 994.6 921.3 0.0
В 5
{8}
2000 м слаб. снег н/о -0.9 -1.3 97 -7 -7 994.4 921.2 0.2
ЮВ 3
{7}
3400 м слаб. снег н/о -0.5 -0.8 98 -6 -6 994.9 921.7 0.2
ЮВ 2
{6}
3500 м в посл. час снег {метель} н/о -0.6 -0.9 98 -5 -5 995.2 921.9 0.1
ЮВ 4
{5}
5000 м снежные зёрна {метель} н/о 0.0 -0.3 98 -6 -6 995.8 922.5
ЮВ 2
{5}
50 км в посл. час снег {метель} н/о -1.1 -1.4 98 -5 -5 996.1 922.6
ЮВ 3
{5}
50 км {снег, метель} н/о -0.6 -0.8 99 -6 -6 996.4 923.0
ЮВ 4
{5}
1300 м дымка {снег} н/о -0.5 -0.7 99 -6 -6 996.6 923.2
ЮВ 3
{7}
15 км в посл. час туман н/о -0.4 -0.6 99 -5 -5 997.1 923.7 -2.5 +0.3
Ю 2
{8}
50 км н/о -1.1 -1.5 97 -5 -5 997.5 924.0
Ю 1
{3}
400 м туман {дымка} н/о -1.1 -1.4 98 -3 -3 997.5 924.0
ЮВ 3
{6}
700 м туман {дымка} н/о -1.4 -1.7 98 -7 -7 998.2 924.5
ЮВ 3
{7}
2700 м в посл. час туман н/о -1.4 -1.7 98 -7 -7 998.1 924.5
ЮВ 4
{7}
2700 м в посл. час туман н/о -1.5 -1.8 98 -8 -8 998.1 924.4
ЮВ 5
{8}
50 км {туман, метель} н/о -0.9 -1.4 96 -7 -7 997.9 924.3
Ю 4
{7}
50 км н/о -0.3 -1.1 94 -6 -6 997.7 924.3
ЮВ 3
{7}
16 км н/о -0.4 -0.9 96 -5 -5 997.9 924.4
ЮВ 4
{6}
4700 м н/о -0.3 -0.8 96 -6 -6 997.8 924.3
В 2
{6}
50 км н/о 0.0 -0.4 97 -4 -4 998.4 924.9
Ю 1
{5}
50 км н/о -0.3 -0.8 96 -3 -3 998.9 925.4
Ю 2
{3}
50 км н/о -0.5 -0.9 97 -4 -4 999.2 925.7 -1.6 0.0
Ю 1
{3}
50 км н/о -1.0 -1.5 96 -3 -3 999.9 926.2
Ю 1
{4}
50 км н/о -1.3 -1.9 96 -4 -4 1000.4 926.6
ЮВ 4
{5}
45 км н/о -1.4 -1.8 97 -7 -7 1000.7 926.9
В 4
{6}
4800 м дымка н/о -2.1 -2.5 97 -8 -8 1001.4 927.4
В 3
{6}
30 км в посл. час туман н/о -2.3 -2.7 97 -8 -8 1001.7 927.7
В 3
{5}
29 км {туман, метель} н/о -2.4 -3.0 96 -8 -8 1001.6 927.5
ЮВ 2
{4}
7000 м в посл. час снег н/о -2.8 -3.3 96 -7 -7 1001.4 927.4 0.0
ЮВ 3
{5}
2000 м слаб. снег {осадки} н/о -3.0 -3.8 94 -8 -8 1001.6 927.5 0.0
ЮВ 2
{5}
3400 м слаб. снег {осадки} н/о -3.1 -3.7 96 -7 -7 1000.8 926.7 0.0
ЮВ 5
{6}
4200 м слаб. снег {осадки} н/о -3.0 -3.7 95 -10 -10 1000.6 926.6 0.0
В 4
{7}
4700 м снежные зёрна {осадки} н/о -3.0 -3.5 96 -9 -9 1000.3 926.3 0.0
В 5
{7}
18 км в посл. час снег н/о -2.3 -3.0 95 -9 -9 999.4 925.5 -3.3 -0.4 0.0
Ю 2
{6}
4100 м дымка н/о -2.4 -3.0 96 -7 -7 999.1 925.3
Ю 2
{4}
2300 м осадки {дымка} н/о -2.5 -3.1 96 -7 -7 999.1 925.2 0.0
ЮВ 1
{3}
7000 м в посл. час осадки {метель} н/о -2.3 -2.8 96 -5 -5 998.3 924.6 0.0
Ю 2
{4}
5000 м дымка {осадки} н/о -2.0 -2.4 97 -6 -6 997.5 923.9
Ю 3
{4}
5000 м в посл. час снег н/о -0.8 -1.2 97 -6 -6 996.9 923.4 0.0
Местоположение метеостанции Миеркенис (Швеция): широта 66.68 долгота 16.12 высота над уровнем моря 615 м.
В архиве по умолчанию представлена погода в Миеркенисе за последнюю неделю. Архивные данные за месяц целиком и за предыдущие месяцы, начиная с января 2011 года, Вы можете получить, выбрав интересующий диапазон дат из раскрывающегося списка и нажав кнопку "Найти!".
*Определитесь, кто Вы:
Внимание! Время в таблицах - всемирное. Для получения местного времени необходимо прибавить поправку, которая равна 1 ч.
Смотрите также архив погоды в соседних городах и на ближайших метеорологических станциях:
Партнеры нашего сайта:      
Пояснения к столбцам:
  • Ветер - указаны скорость ветра в м/с - средняя за 10 мин, порывы в срок и между сроками (в фигурных скобках) и направление, откуда дует ветер: С - северный,
  • СВ - северо-восточный, В - восточный, ЮВ - юго-восточный, Ю - южный, ЮЗ - юго-западный, З - западный, СЗ - северо-западный.
  • Видимость - горизонтальная дальность видимости в метрах или километрах. При видимости от 1 до 10 км при отсутствии осадков обычно наблюдается дымка, при ухудшении видимости до 1 км и менее - туман. В сухую погоду видимость может ухудшаться дымом, пылью или мглою.
  • Явления - указаны атмосферные явления, наблюдавшиеся в срок или в последний час перед сроком; фигурными скобками обозначены явления, наблюдавшиеся между сроками (за 1-3 часа до срока); квадратными скобками обозначены град или гололедные отложения с указанием их диаметра в мм.
  • Облачность - указаны через наклонную черту общая и нижняя облачность в баллах и высота нижней границы облаков в метрах; квадратными скобками обозначены формы облаков: Ci - перистые, Cs - перисто-слоистые, Cc - перисто-кучевые, Ac - высококучевые, As - высокослоистые, Sc - слоисто-кучевые, Ns - слоисто-дождевые, Cu - кучевые, Cb - кучево-дождевые. Подробнее классификацию облаков см. в Атласе облаков (PDF).
  • T - Температура воздуха - температура, измеренная на высоте 2 м над землей.
  • Td - Температура точки росы - температура, при понижении до которой содержащийся в воздухе водяной пар достигнет насыщения.
  • f - Относительная влажность воздуха - влажноcть воздуха, измеренная на высоте 2 м над землей.
  • Te - Эффективная температура - температура, которую ощущает одетый по сезону человек в тени. Характеристика душности погоды. При расчете учитывается влияние влажности воздуха и скорости ветра на теплоощущения человека.
  • Tes - Эффективная температура на солнце - температура, которую ощущает человек, с поправкой на солнечный нагрев. Характеристика знойности погоды. Зависит от высоты солнца над горизонтом, облачности и скорости ветра. Ночью, в пасмурную погоду, а также при ветре 12 м/с и более поправка равна нулю.
  • P - Атмосферное давление - приведенное к уровню моря атмосферное давление.
  • Po - Атмосферное давление - измеренное на уровне метеостанции атмосферное давление.
  • Tmin - Минимальная температура - минимум температуры воздуха на высоте 2 м над землей.
  • Tmax - Максимальная температура - максимум температуры воздуха на высоте 2 м над землей.
  • R - Количество осадков - Количество выпавших осадков за период времени, мм. При наведении курсора мыши на число - период времени, за который выпало указанное количество осадков.
  • R24 - Количество осадков - Количество выпавших осадков за 24 часа, мм.
  • S - Снежный покров - Высота снежного покрова, см. При наведении курсора мыши на число - состояние снежного покрова и степень покрытия местности в баллах.